Location: �clusier
(49.9361°N, 2.7869°E)
Time: 17:26:04
(UTC+00:00)

NOAA 13 - Pass Details

Date: 29 January 2022
Orbit: 842 x 857 km, 98.5° (Epoch: 19 May)

Event Time Altitude Azimuth Distance (km) Brightness Sun altitude
Rises 17:08:43 0° 213° (SSW) 3,388 8.8 -5.3°
Reaches altitude 10° 17:11:58 10° 233° (SW) 2,459 8.7 -5.8°
Maximum altitude 17:15:24 17° 273° (W) 2,024 7.8 -6.3°
Drops below altitude 10° 17:18:51 10° 312° (NW) 2,474 7.5 -6.8°
Sets 17:22:09 0° 333° (NNW) 3,417 8.0 -7.3°
